COSMOS 2251 DEB, 35660

Orbit data source: Space-Track

COSMOS 2251 DEB, 35660 is space debris in LEO originally from a launch on Wed, 16 Jun 1993 UTC launched from the Plesetsk Missile And Space Complex (PKMTR). The debris from Iridium 33, an American commercial communications satellite, has been tracked extensively since its accidental collision with the defunct Russian satellite Cosmos 2251 in 2009. This event, occurring at high speed in low Earth orbit (LEO), generated thousands of pieces of space debris, significantly increasing the risk of further collisions. The Iridium 33 debris cloud has impacted space traffic management and orbital debris mitigation strategies, making it a subject of ongoing study in space situational awareness.

Loading next visibility...
Identifier
35660, 1993-036APB
Orbit
LEO
Country
Flag of CISCIS
Related business
Manufacturer
Unknown
Mission
Spacecraft
Bus & Motor
Unknown
Mass
Unknown
Launch date (UTC)
1993-06-16 (33 years ago)
Launch vehicle
Unknown
Launch site
Plesetsk Missile And Space Complex (PKMTR)
Object type
Payload
Rocket body
Debris
Shape & HBR
Unknown shape, 0.1 m
Radar Cross Section
Small (<0.1 m²)

Expand to show TLE details & history
Last TLE update: 4 days ago

TLE from 4 days ago
0 COSMOS 2251 DEB
1 35660U 93036APB 26261.52074454  .00000654  00000-0  17324-3 0  9994
2 35660  74.0412 327.6761 0016714  41.3754  20.6206 14.50671532699278
Epoch: 2026-09-18T12:29Z
TLE epoch observation values (Epoch: 2026-09-18T12:29:52.328Z)
Latitude
58.25642°
Longitude
170.13688°
Altitude
721.826 km
Speed
7.506 km/s
True Right ascension
23h 40m 11s
True Declination
58° 06' 06"
Sunlit
Object was in full shadow at epoch
Visualization orbit readout
Latitude
Unknown
Longitude
Unknown
Altitude
Unknown
Speed
Unknown
Apparent Right ascension
Unknown
Apparent Declination
Unknown
Sunlit
N/A
Visualization observer readout
Local Sidereal Time
00:56:38
Azimuth
Unknown
Elevation
Unknown
Doppler factor
Unknown
Orbital elements
Apogee altitude
732.929 km
Perigee altitude
709.198 km
Semi-major axis
7,099.2 km
Eccentricity
0.00167
Inclination
74.0412°
RAAN
327.6761°
Arg. of periapsis
41.3754°
True anomaly
20.68818°
Mean anomaly
20.6206°
Eccentric anomaly
20.65438°
Mean motion
3.62852 °/min
Orbital period
99.21 mins
BSTAR
0.00017324

Documentation

Showing up to 5 results
|